CZ-5 R/B, 58583

Orbit data source: Space-Track

CZ-5 R/B, 58583 is space debris in HEO originally from a launch on Fri, 15 Dec 2023 UTC launched from the Wenchang Satellite Launch Center (WSC). Debris objects in space refer to the collection of defunct objects orbiting the Earth. Examples of debris include non-operational satellites, rocket bodies, and fragments generated from explosions, collisions, or faulty payload assembly.

Loading next visibility...
Identifier
58583, 2023-197B
Orbit
HEO
Country
Flag of CNCN / PRC
Related business
Manufacturer
CALT
Mission
Spacecraft
Bus & Motor
CZ-5 H5-2, Unknown motor
Mass
5,100 kg wet, 5,100 kg dry
Launch date (UTC)
2023-12-15 (3 years ago)
Launch vehicle
Unknown
Launch site
Wenchang Satellite Launch Center (WSC)
Object type
Payload
Rocket body
Debris
Shape & HBR
Step Cyl, 5.3 m
Radar Cross Section
46.821 m², Large (>1 m²)

Expand to show TLE details & history
Last TLE update: 2 days ago

TLE from 2 days ago
0 CZ-5 R/B
1 58583U 23197B   26171.29919209  .00003947  00000-0  15205-2 0  9997
2 58583  19.0432 283.4322 7139519 166.4400 234.5617  2.45012890 22283
Epoch: 2026-06-20T07:10Z
TLE epoch observation values (Epoch: 2026-06-20T07:10:50.196Z)
Latitude
0.00001°
Longitude
-92.8017°
Altitude
30,866.136 km
Speed
2.063 km/s
True Right ascension
18h 53m 41s
True Declination
0° 00' 00"
Sunlit
Object was in daylight at epoch
Visualization orbit readout
Latitude
Unknown
Longitude
Unknown
Altitude
Unknown
Speed
Unknown
Apparent Right ascension
Unknown
Apparent Declination
Unknown
Sunlit
N/A
Visualization observer readout
Local Sidereal Time
21:37:47
Azimuth
Unknown
Elevation
Unknown
Doppler factor
Unknown
Orbital elements
Apogee altitude
33,465.728 km
Perigee altitude
271.561 km
Semi-major axis
23,246.781 km
Eccentricity
0.71395
Inclination
19.0432°
RAAN
283.4322°
Arg. of periapsis
166.44°
True anomaly
193.60356°
Mean anomaly
234.5617°
Eccentric anomaly
212.55162°
Mean motion
0.61235 °/min
Orbital period
587.9 mins
BSTAR
0.0015205
Loading maneuver chart data...
Computing Atmospheric mass density...
Loading historical data...
Loading historical data...
Loading historical data...
Loading historical data...
Loading historical data...
Loading historical data...
Loading historical data...
Other satellites on launch #197 in the year 2023 (2023-12-15 UTC)

Documentation

Showing up to 5 results
|